TimeCST,TemperatureF,Dew PointF,Humidity,Sea Level PressureIn,VisibilityMPH,Wind Direction,Wind SpeedMPH,Gust SpeedMPH,PrecipitationIn,Events,Conditions,WindDirDegrees,DateUTC
12:50 AM,44.6,42.8,93,30.11,10.0,SE,6.9,-,N/A,,Clear,140,1999-01-12 06:50:00
1:50 AM,44.6,42.8,93,30.11,10.0,SE,6.9,-,N/A,,Clear,140,1999-01-12 07:50:00
2:50 AM,42.8,42.8,100,30.09,10.0,SE,6.9,-,N/A,,Clear,140,1999-01-12 08:50:00
3:50 AM,44.6,44.6,100,30.07,10.0,SE,6.9,-,N/A,,Partly Cloudy,140,1999-01-12 09:50:00
4:50 AM,44.6,42.8,93,30.06,10.0,SE,6.9,-,N/A,,Partly Cloudy,140,1999-01-12 10:50:00
5:50 AM,46.4,44.6,93,30.06,10.0,SE,11.5,-,N/A,,Partly Cloudy,140,1999-01-12 11:50:00
6:50 AM,44.6,44.6,100,30.06,10.0,SE,11.5,-,N/A,,Partly Cloudy,140,1999-01-12 12:50:00
7:50 AM,46.4,44.6,93,30.05,10.0,SE,9.2,-,N/A,,Clear,130,1999-01-12 13:50:00
8:50 AM,53.6,50.0,88,30.05,10.0,SE,9.2,-,N/A,,Clear,140,1999-01-12 14:50:00
9:50 AM,62.6,51.8,68,30.04,10.0,SE,11.5,-,N/A,,Clear,140,1999-01-12 15:50:00
10:50 AM,66.2,51.8,60,30.03,10.0,SSE,18.4,-,N/A,,Clear,160,1999-01-12 16:50:00
11:50 AM,68.0,53.6,60,30.01,10.0,South,13.8,-,N/A,,Overcast,190,1999-01-12 17:50:00
1:48 PM,69.8,51.8,53,30.09,7.0,SSE,20.7,-,N/A,,Partly Cloudy,160,1999-01-12 19:48:00
1:50 PM,69.8,51.8,53,29.94,10.0,South,18.4,-,N/A,,Mostly Cloudy,190,1999-01-12 19:50:00
2:50 PM,69.8,53.6,56,29.92,10.0,South,17.3,23.0,N/A,,Mostly Cloudy,180,1999-01-12 20:50:00
3:50 PM,66.2,51.8,60,29.91,10.0,SSE,17.3,-,N/A,,Overcast,160,1999-01-12 21:50:00
4:50 PM,66.2,53.6,64,29.92,10.0,South,20.7,-,N/A,,Overcast,180,1999-01-12 22:50:00
5:50 PM,64.4,53.6,68,29.91,10.0,South,20.7,-,N/A,,Mostly Cloudy,170,1999-01-12 23:50:00
6:50 PM,64.4,53.6,68,29.93,10.0,SE,11.5,-,N/A,,Overcast,140,1999-01-13 00:50:00
7:50 PM,64.4,53.6,68,29.93,10.0,SSE,11.5,-,N/A,,Overcast,160,1999-01-13 01:50:00
8:50 PM,62.6,53.6,72,29.92,10.0,SSE,17.3,-,N/A,,Mostly Cloudy,160,1999-01-13 02:50:00
9:50 PM,62.6,53.6,72,29.93,10.0,SSE,11.5,-,N/A,,Overcast,160,1999-01-13 03:50:00
10:50 PM,62.6,53.6,72,29.95,10.0,SSE,11.5,-,N/A,,Overcast,160,1999-01-13 04:50:00
11:50 PM,62.6,53.6,72,29.94,10.0,South,8.1,-,N/A,,Scattered Clouds,170,1999-01-13 05:50:00